ONEWEB-0029, 45445

Orbit data source: Space-Track

ONEWEB-0029, 45445 is a payload satellite owned by One Web (UK) in LEO that was launched on Sat, 21 Mar 2020 UTC via a SOYUZ-2-1B launch vehicle from the Tyuratam Missile And Space Complex (TTMTR). Payloads include a variety of satellites, spacecraft, and rockets equipped with specific instruments for various scientific and technological missions. These include communications satellites like Starlink; space stations such as the ISS; scientific satellites like the Hubble; Earth observation satellites from companies like Planet Labs, Umbra, and HawkEye 360; GPS; miniature CubeSats for education and research; and military/defense satellites.

Loading next visibility...
ONEWEB-0029 details
Identifier
45445, 2020-020X
Orbit
LEO
Last TLE update12 hours ago
Origin
Flag of UKOne Web (UK)
ManufacturerOne Web
MissionOperational Commercial Communications
Bus & MotorARROW, Unknown motor
Mass148 kg wet, ~140 kg dry
Launch date (UTC)
2020-03-21 (5 years ago)
Launch vehicle
SOYUZ-2-1B
Launch site
Tyuratam Missile And Space Complex (TTMTR)
Object type
Payload
Rocket body
Debris
Shape & HBRTrap Box + 2 Pan, 5 m
Radar Cross Section2.957 m², Large (>1 m²)

Expand to show TLE details & history

TLE from 12 hours ago
0 ONEWEB-0029
1 45445U 20020X   24361.27990065  .00000531  00000-0  14619-2 0  9992
2 45445  87.8904 128.2540 0001443  95.9756 264.1536 13.11416930232154
Epoch: 2024-12-26T06:43Z
Definitive object data (Epoch: 2024-12-26T06:43:03.416Z)
Latitude-0.00005°
Longitude-67.7718°
Altitude1,220.684 km
Speed7.244 km/s
True Right ascension08h 33m 00s
True Declination0° 00' 00"
Sunlit
Object was in full shadow at TLE epoch
Visualization TLE readout
Latitude-46.33847°
Longitude114.32866°
Altitude1,236.342 km
Speed7.235 km/s
Apparent Right ascension01h 02m 57s
Apparent Declination-71° 17' 43"
Sunlit
Object is in daylight
Visualization observer readout
Local Sidereal Time18:13:47
Azimuth155.345° SSE
Elevation-41.31°
Doppler factor1
Orbital elements
Apogee altitude1,215.897 km
Perigee altitude1,213.705 km
Semi-major axis7,592.938 km
Eccentricity0.0001443
Inclination87.8904°
RAAN128.254°
Arg. of periapsis95.9756°
True anomaly264.13715°
Mean anomaly264.1536°
Eccentric anomaly264.14538°
Mean motion3.28041 °/min
BSTAR0.0014619
Orbital period109.74 mins
Loading maneuver chart data...
Loading historical data...
Loading historical data...
Loading historical data...
Loading historical data...
Loading historical data...
Loading historical data...
Loading historical data...

ONEWEB-0029 Visibility forecast

Observer location: undefined°, undefined

Span
Click to sort rows by Start time (UTC) header in descending order
Start Az.
Max El. time (UTC)
Max El. Az.
Max El.
End time (UTC)
End Az.
13 mins2024-12-26 20:08:13.856Z14.283° NNE2024-12-26 20:14:13.856Z73.976° E34.007°2024-12-26 20:21:13.856Z151.593° SSE
11 mins2024-12-26 21:59:13.856Z335.601° NNW2024-12-26 22:04:13.856Z282.36° WNW29.206°2024-12-26 22:10:13.856Z221.715° SW
12 mins2024-12-27 08:28:13.856Z148.537° SSE2024-12-27 08:33:13.856Z89.674° E36.463°2024-12-27 08:40:13.856Z12.623° NNE
10 mins2024-12-27 10:19:13.856Z232.352° WSW2024-12-27 10:23:13.856Z275.686° WNW26.747°2024-12-27 10:29:13.856Z337.13° NNW
|